Weather in Sharovichi

Russia / Bryansk Oblast     53°57′47″N   33°44′41″E
temp.,
°C
wind,
m/s
gust,
m/s
humid.,
%
clouds,
%
prec.,
mm/h
press.,
hPa
HPBL,
m
12 april, mon
mon1200:00+6ese22760 0.0 103021
03:00+5ese2379100 0.0 103146
06:00+4e3778100 0.0 1030110
09:00+9e41261100 0.0 1029543
12:00+11e5949100 0.0 1027799
15:00+12e3770100 0.2 1025582
18:00+13e3772100 0.0 1024489
21:00+10e31090100 0.0 1023222
13 april, tue
tue1300:00+9e3993100 0.0 1022209
03:00+8se3691100 0.0 1022123
06:00+8sse2591100 0.0 102293
09:00+12se397282 0.0 1022273
12:00+18se475175 0.0 10211295
15:00+17s575791 0.1 10201262
18:00+15s2571100 0.3 1020355
21:00+12se0083100 0.6 102010
14 april, wed
wed1400:00+11e1185100 0.0 101914
03:00+10se2488100 0.1 101885
06:00+10sse389095 0.0 1018284
09:00+12s3481100 0.0 1018344
12:00+15sse476787 0.2 10171134
15:00+15sse466589 1.3 10161176
18:00+14sse377796 2.1 1015455
21:00+11s2585100 2.5 1016103
15 april, thu
thu1500:00+10ese3793100 0.5 1016252
03:00+9se2394100 1.0 101677
06:00+9se2497100 0.4 1016110
09:00+10se2391100 1.0 1016231
12:00+13sse2471100 1.0 1016582
15:00+16se135585 1.3 10141437
18:00+13ese4775100 1.3 1015465
21:00+10ese4988100 1.5 1015479
16 april, fri
fri1600:00+9e2596100 1.7 1015235
03:00+9ene1193100 2.9 101536
06:00+9ne3994100 0.1 1015357
09:00+9ene4994100 3.0 1015463
12:00+12ene467870 1.2 1016729
15:00+14ene466869 1.6 10171136
18:00+13ene497791 1.8 1017396
21:00+11ne51392100 4.9 1018599